Location: Warszawa
(52.2500°N, 21.0000°E)
Time: 20:38:22
(UTC+02:00)

Vanguard 2 - Pass Details

Date: 03 February 2023
Orbit: 553 x 2927 km, 32.9° (Epoch: 27 March)

Event Time Altitude Azimuth Distance (km) Brightness Sun altitude
Rises 19:51:10 0° 197° (SSW) 5,242 11.8 -31.3°
Reaches altitude 10° 19:55:42 10° 181° (S) 4,644 11.3 -32.0°
Enters shadow 19:59:21 16° 165° (SSE) 4,406 11.1 -32.6°
